CRN104 MMUN-MUHG

Flight info

Callsign CRN104
Flight time 2h 13m
Altitude 19000
Route NUDAL1F NUDAL UR506 NUDUG UL212 UKULO DCT ANETU
Aircraft AT75/M-SDFGIRY/S

Departure

Time 2026-05-04 08:43
Airport Cancún International Airport (MMUN)

Arrival

Time 2026-05-04 10:56
Airport Frank Pais International Airport (MUHG)
Time Latitude Longitude Altitude Speed Heading
2026-05-04 08:21 21.03748 -86.87265 25 ft 0 kts 300°
2026-05-04 08:40 21.03677 -86.87284 28 ft 7 kts 121°
2026-05-04 08:40 21.03646 -86.87230 26 ft 9 kts 121°
2026-05-04 08:40 21.03609 -86.87166 24 ft 11 kts 123°
2026-05-04 08:41 21.03562 -86.87104 24 ft 10 kts 154°
2026-05-04 08:41 21.03503 -86.87135 25 ft 10 kts 218°
2026-05-04 08:41 21.03455 -86.87173 27 ft 0 kts 216°
2026-05-04 08:41 21.03449 -86.87178 28 ft 7 kts 219°
2026-05-04 08:42 21.03381 -86.87238 26 ft 14 kts 242°
2026-05-04 08:42 21.03419 -86.87343 25 ft 35 kts 306°
2026-05-04 08:42 21.03705 -86.87775 28 ft 105 kts 303°
2026-05-04 08:42 21.04186 -86.88552 308 ft 137 kts 303°
2026-05-04 08:43 21.04745 -86.89459 829 ft 155 kts 304°
2026-05-04 08:43 21.05353 -86.90451 1460 ft 163 kts 304°
2026-05-04 08:43 21.06013 -86.91530 1952 ft 179 kts 303°
2026-05-04 08:43 21.06891 -86.92422 2696 ft 175 kts 341°
2026-05-04 08:44 21.08068 -86.92327 3446 ft 175 kts 31°
2026-05-04 08:44 21.08869 -86.91375 4136 ft 175 kts 57°
2026-05-04 08:46 21.14637 -86.84422 9220 ft 193 kts 84°
2026-05-04 08:46 21.14697 -86.82963 9938 ft 198 kts 89°
2026-05-04 08:46 21.14692 -86.81477 10592 ft 201 kts 90°
2026-05-04 08:46 21.14676 -86.79989 11236 ft 204 kts 90°
2026-05-04 08:47 21.14665 -86.78460 11889 ft 207 kts 90°
2026-05-04 08:47 21.14677 -86.76905 12551 ft 210 kts 88°
2026-05-04 08:47 21.14709 -86.75325 13207 ft 213 kts 88°
2026-05-04 08:47 21.14746 -86.73723 13840 ft 217 kts 88°
2026-05-04 08:48 21.14785 -86.72097 14411 ft 219 kts 88°
2026-05-04 08:48 21.14827 -86.70448 14973 ft 222 kts 88°
2026-05-04 08:48 21.14879 -86.68807 15521 ft 225 kts 87°
2026-05-04 08:48 21.14938 -86.67117 16073 ft 228 kts 87°
2026-05-04 08:49 21.15002 -86.65410 16617 ft 230 kts 87°
2026-05-04 08:50 21.15404 -86.54793 19549 ft 244 kts 83°
2026-05-04 08:50 21.15542 -86.52976 19991 ft 245 kts 82°
2026-05-04 08:51 21.15677 -86.51146 20433 ft 247 kts 82°
2026-05-04 08:51 21.15812 -86.49302 20824 ft 251 kts 81°
2026-05-04 08:51 21.15965 -86.47368 20910 ft 268 kts 81°
2026-05-04 08:51 21.16141 -86.45360 20947 ft 279 kts 81°
2026-05-04 08:52 21.16313 -86.43265 20961 ft 286 kts 82°
2026-05-04 08:52 21.16464 -86.41113 20967 ft 292 kts 82°
2026-05-04 08:52 21.16615 -86.38924 20974 ft 296 kts 82°
2026-05-04 08:52 21.16773 -86.36706 20978 ft 300 kts 82°
2026-05-04 08:53 21.16934 -86.34459 20979 ft 304 kts 82°
2026-05-04 08:54 21.18070 -86.18406 20981 ft 312 kts 82°
2026-05-04 08:55 21.18233 -86.16087 20982 ft 312 kts 82°
2026-05-04 08:55 21.18395 -86.13786 20982 ft 313 kts 82°
2026-05-04 08:55 21.18558 -86.11458 20981 ft 313 kts 82°
2026-05-04 08:55 21.18720 -86.09133 20982 ft 313 kts 83°
2026-05-04 08:57 21.20459 -85.92976 20980 ft 310 kts 72°
2026-05-04 09:01 21.26809 -85.61315 20979 ft 302 kts 58°
2026-05-04 09:01 21.27873 -85.59383 20978 ft 299 kts 51°
2026-05-04 09:01 21.29060 -85.57556 20981 ft 299 kts 49°
2026-05-04 09:01 21.30268 -85.55740 20979 ft 300 kts 50°
2026-05-04 09:02 21.31446 -85.53892 20975 ft 301 kts 51°
2026-05-04 09:02 21.32591 -85.52003 20976 ft 302 kts 52°
2026-05-04 09:02 21.33732 -85.50110 20978 ft 302 kts 52°
2026-05-04 09:02 21.34884 -85.48223 20979 ft 302 kts 52°
2026-05-04 09:03 21.36043 -85.46341 20983 ft 302 kts 52°
2026-05-04 09:03 21.37202 -85.44453 20973 ft 303 kts 51°
2026-05-04 09:03 21.38360 -85.42568 20981 ft 303 kts 52°
2026-05-04 09:03 21.39502 -85.40704 20981 ft 303 kts 52°
2026-05-04 09:04 21.40662 -85.38813 20973 ft 303 kts 52°
2026-05-04 09:04 21.41821 -85.36921 20976 ft 303 kts 52°
2026-05-04 09:04 21.42981 -85.35028 20982 ft 303 kts 52°
2026-05-04 09:04 21.44142 -85.33132 20978 ft 303 kts 52°
2026-05-04 09:05 21.45302 -85.31238 20979 ft 303 kts 52°
2026-05-04 09:05 21.46466 -85.29336 20983 ft 304 kts 52°
2026-05-04 09:05 21.47627 -85.27439 20983 ft 304 kts 52°
2026-05-04 09:05 21.48788 -85.25541 20986 ft 304 kts 52°
2026-05-04 09:06 21.49936 -85.23665 20984 ft 304 kts 52°
2026-05-04 09:07 21.58073 -85.10338 20983 ft 305 kts 52°
2026-05-04 09:08 21.59235 -85.08432 20979 ft 305 kts 52°
2026-05-04 09:08 21.60401 -85.06521 20979 ft 305 kts 52°
2026-05-04 09:08 21.61553 -85.04630 20979 ft 305 kts 52°
2026-05-04 09:08 21.62716 -85.02720 20983 ft 305 kts 52°
2026-05-04 09:09 21.63880 -85.00808 20982 ft 305 kts 52°
2026-05-04 09:09 21.65043 -84.98898 20982 ft 306 kts 52°
2026-05-04 09:09 21.66207 -84.96985 20986 ft 306 kts 52°
2026-05-04 09:09 21.67372 -84.95069 20984 ft 306 kts 52°
2026-05-04 09:10 21.68537 -84.93153 20983 ft 306 kts 52°
2026-05-04 09:10 21.69686 -84.91262 20983 ft 306 kts 52°
2026-05-04 09:10 21.70849 -84.89348 20981 ft 306 kts 52°
2026-05-04 09:10 21.72015 -84.87428 20981 ft 306 kts 52°
2026-05-04 09:11 21.73179 -84.85512 20980 ft 306 kts 52°
2026-05-04 09:11 21.74346 -84.83590 20981 ft 306 kts 52°
2026-05-04 09:11 21.75514 -84.81668 20982 ft 306 kts 52°
2026-05-04 09:11 21.76683 -84.79746 20983 ft 307 kts 52°
2026-05-04 09:12 21.77851 -84.77821 20984 ft 307 kts 52°
2026-05-04 09:12 21.79021 -84.75901 20982 ft 307 kts 51°
2026-05-04 09:14 21.85582 -84.61687 20986 ft 316 kts 90°
2026-05-04 09:14 21.85379 -84.59323 20984 ft 317 kts 95°
2026-05-04 09:14 21.85094 -84.56964 20983 ft 318 kts 96°
2026-05-04 09:14 21.84825 -84.54598 20984 ft 319 kts 94°
2026-05-04 09:15 21.84624 -84.52223 20987 ft 319 kts 92°
2026-05-04 09:15 21.84468 -84.49834 20985 ft 319 kts 91°
2026-05-04 09:15 21.84322 -84.47447 20988 ft 320 kts 91°
2026-05-04 09:15 21.84169 -84.45059 20983 ft 320 kts 92°
2026-05-04 09:17 21.82686 -84.25943 20983 ft 321 kts 93°
2026-05-04 09:18 21.82501 -84.23545 20983 ft 321 kts 93°
2026-05-04 09:18 21.82316 -84.21148 20982 ft 321 kts 93°
2026-05-04 09:18 21.82130 -84.18752 20982 ft 321 kts 93°
2026-05-04 09:18 21.81942 -84.16355 20983 ft 321 kts 93°
2026-05-04 09:19 21.81754 -84.13956 20982 ft 321 kts 93°
2026-05-04 09:19 21.81568 -84.11588 20982 ft 321 kts 93°
2026-05-04 09:19 21.81379 -84.09190 20984 ft 321 kts 93°
2026-05-04 09:19 21.81191 -84.06799 20986 ft 321 kts 93°
2026-05-04 09:20 21.81002 -84.04400 20986 ft 321 kts 93°
2026-05-04 09:20 21.80875 -84.02812 20984 ft 321 kts 93°
2026-05-04 09:20 21.80686 -84.00419 20984 ft 321 kts 93°
2026-05-04 09:20 21.80496 -83.98023 20986 ft 321 kts 93°
2026-05-04 09:21 21.80244 -83.94844 20983 ft 321 kts 93°
2026-05-04 09:21 21.80116 -83.93227 20981 ft 321 kts 93°
2026-05-04 09:21 21.79927 -83.90857 20985 ft 321 kts 93°
2026-05-04 09:21 21.79736 -83.88470 20983 ft 321 kts 93°
2026-05-04 09:22 21.79544 -83.86070 20982 ft 321 kts 93°
2026-05-04 09:22 21.79351 -83.83675 20983 ft 321 kts 93°
2026-05-04 09:22 21.79159 -83.81282 20980 ft 321 kts 93°
2026-05-04 09:22 21.78967 -83.78892 20982 ft 321 kts 93°
2026-05-04 09:23 21.78774 -83.76497 20983 ft 321 kts 93°
2026-05-04 09:23 21.78581 -83.74107 20982 ft 321 kts 93°
2026-05-04 09:23 21.78387 -83.71711 20980 ft 321 kts 93°
2026-05-04 09:23 21.78194 -83.69319 20981 ft 321 kts 93°
2026-05-04 09:25 21.76823 -83.52593 20983 ft 321 kts 93°
2026-05-04 09:25 21.76629 -83.50227 20982 ft 321 kts 93°
2026-05-04 09:26 21.76437 -83.47835 20981 ft 321 kts 93°
2026-05-04 09:26 21.76240 -83.45445 20982 ft 321 kts 93°
2026-05-04 09:26 21.76049 -83.43054 20983 ft 321 kts 94°
2026-05-04 09:26 21.75844 -83.40663 20983 ft 321 kts 94°
2026-05-04 09:27 21.75643 -83.38268 20982 ft 321 kts 94°
2026-05-04 09:27 21.75443 -83.35876 20982 ft 321 kts 94°
2026-05-04 09:27 21.75245 -83.33483 20983 ft 320 kts 94°
2026-05-04 09:27 21.75049 -83.31126 20982 ft 320 kts 94°
2026-05-04 09:28 21.74850 -83.28740 20984 ft 320 kts 94°
2026-05-04 09:28 21.74650 -83.26336 20983 ft 320 kts 94°
2026-05-04 09:28 21.74450 -83.23951 20982 ft 320 kts 94°
2026-05-04 09:28 21.74252 -83.21592 20982 ft 320 kts 94°
2026-05-04 09:29 21.74052 -83.19199 20983 ft 320 kts 94°
2026-05-04 09:29 21.73851 -83.16815 20979 ft 320 kts 94°
2026-05-04 09:29 21.73651 -83.14432 20976 ft 320 kts 94°
2026-05-04 09:29 21.73449 -83.12048 20981 ft 320 kts 94°
2026-05-04 09:30 21.73247 -83.09654 20981 ft 320 kts 94°
2026-05-04 09:30 21.73045 -83.07273 20982 ft 320 kts 94°
2026-05-04 09:30 21.72846 -83.04912 20977 ft 320 kts 94°
2026-05-04 09:30 21.72643 -83.02530 20987 ft 320 kts 94°
2026-05-04 09:31 21.72440 -83.00147 20989 ft 320 kts 94°
2026-05-04 09:31 21.72236 -82.97758 20989 ft 320 kts 94°
2026-05-04 09:31 21.72037 -82.95367 20984 ft 321 kts 94°
2026-05-04 09:31 21.71829 -82.92973 20985 ft 321 kts 94°
2026-05-04 09:32 21.71624 -82.90586 20983 ft 321 kts 94°
2026-05-04 09:32 21.71432 -82.88197 20984 ft 320 kts 94°
2026-05-04 09:34 21.70088 -82.71530 20985 ft 320 kts 94°
2026-05-04 09:34 21.69892 -82.69132 20984 ft 320 kts 94°
2026-05-04 09:34 21.69698 -82.66740 20986 ft 320 kts 94°
2026-05-04 09:34 21.69500 -82.64352 20983 ft 320 kts 94°
2026-05-04 09:35 21.69306 -82.61965 20982 ft 320 kts 94°
2026-05-04 09:35 21.69108 -82.59582 20984 ft 320 kts 94°
2026-05-04 09:35 21.68916 -82.57201 20985 ft 320 kts 94°
2026-05-04 09:35 21.68725 -82.54817 20983 ft 320 kts 94°
2026-05-04 09:37 21.67409 -82.38188 20986 ft 319 kts 94°
2026-05-04 09:37 21.67223 -82.35806 20986 ft 319 kts 93°
2026-05-04 09:38 21.67034 -82.33429 20987 ft 319 kts 94°
2026-05-04 09:38 21.66847 -82.31041 20988 ft 319 kts 93°
2026-05-04 09:38 21.66657 -82.28651 20988 ft 319 kts 94°
2026-05-04 09:38 21.66472 -82.26300 20988 ft 320 kts 94°
2026-05-04 09:39 21.66282 -82.23920 20986 ft 320 kts 94°
2026-05-04 09:39 21.66094 -82.21537 20985 ft 320 kts 94°
2026-05-04 09:39 21.65907 -82.19157 20984 ft 320 kts 94°
2026-05-04 09:39 21.65716 -82.16773 20987 ft 320 kts 94°
2026-05-04 09:40 21.65527 -82.14390 20987 ft 320 kts 94°
2026-05-04 09:40 21.65336 -82.12001 20990 ft 320 kts 94°
2026-05-04 09:40 21.65146 -82.09623 20988 ft 320 kts 94°
2026-05-04 09:40 21.64957 -82.07265 20988 ft 319 kts 94°
2026-05-04 09:41 21.64766 -82.04884 20988 ft 319 kts 94°
2026-05-04 09:42 21.63423 -81.88265 20986 ft 319 kts 94°
2026-05-04 09:43 21.63229 -81.85883 20987 ft 319 kts 94°
2026-05-04 09:43 21.63034 -81.83497 20988 ft 319 kts 94°
2026-05-04 09:43 21.62840 -81.81120 20985 ft 319 kts 94°
2026-05-04 09:43 21.62645 -81.78741 20989 ft 319 kts 94°
2026-05-04 09:44 21.62453 -81.76394 20988 ft 319 kts 94°
2026-05-04 09:44 21.62258 -81.74011 20989 ft 319 kts 94°
2026-05-04 09:44 21.62062 -81.71632 20983 ft 319 kts 94°
2026-05-04 09:46 21.60689 -81.55004 20989 ft 319 kts 94°
2026-05-04 09:46 21.60467 -81.52623 20987 ft 320 kts 95°
2026-05-04 09:46 21.60159 -81.50257 20985 ft 320 kts 98°
2026-05-04 09:47 21.59784 -81.47899 20986 ft 320 kts 99°
2026-05-04 09:47 21.59396 -81.45542 20984 ft 320 kts 99°
2026-05-04 09:49 21.56939 -81.29047 20989 ft 320 kts 98°
2026-05-04 09:49 21.56590 -81.26676 20983 ft 320 kts 98°
2026-05-04 09:49 21.56246 -81.24340 20990 ft 320 kts 98°
2026-05-04 09:51 21.54164 -81.10154 20989 ft 320 kts 98°
2026-05-04 09:51 21.53830 -81.07784 20988 ft 320 kts 97°
2026-05-04 09:51 21.53511 -81.05452 20987 ft 320 kts 97°
2026-05-04 09:51 21.53168 -81.03081 20990 ft 320 kts 98°
2026-05-04 09:52 21.52815 -81.00718 20986 ft 320 kts 98°
2026-05-04 09:52 21.52464 -80.98361 20989 ft 320 kts 98°
2026-05-04 09:52 21.52113 -80.96004 20986 ft 320 kts 98°
2026-05-04 09:52 21.51764 -80.93643 20992 ft 320 kts 98°
2026-05-04 09:53 21.51413 -80.91288 20992 ft 320 kts 98°
2026-05-04 09:53 21.51059 -80.88931 20991 ft 320 kts 98°
2026-05-04 09:53 21.50706 -80.86575 20990 ft 319 kts 98°
2026-05-04 09:53 21.50359 -80.84249 20991 ft 319 kts 98°
2026-05-04 09:54 21.50006 -80.81892 20988 ft 319 kts 98°
2026-05-04 09:54 21.49654 -80.79539 20989 ft 319 kts 98°
2026-05-04 09:54 21.49301 -80.77186 20984 ft 319 kts 98°
2026-05-04 09:54 21.48947 -80.74828 20991 ft 319 kts 98°
2026-05-04 09:55 21.48593 -80.72471 20989 ft 319 kts 98°
2026-05-04 09:55 21.48239 -80.70111 20986 ft 320 kts 98°
2026-05-04 09:55 21.47885 -80.67755 20991 ft 320 kts 98°
2026-05-04 09:55 21.47528 -80.65403 20990 ft 319 kts 98°
2026-05-04 09:56 21.47172 -80.63044 20984 ft 320 kts 98°
2026-05-04 09:56 21.46822 -80.60718 20986 ft 320 kts 98°
2026-05-04 09:56 21.46463 -80.58362 20989 ft 320 kts 98°
2026-05-04 09:56 21.46108 -80.56009 20989 ft 320 kts 98°
2026-05-04 09:57 21.45752 -80.53652 20992 ft 320 kts 98°
2026-05-04 09:57 21.45395 -80.51295 20991 ft 320 kts 98°
2026-05-04 09:57 21.45036 -80.48927 20992 ft 320 kts 98°
2026-05-04 09:57 21.44677 -80.46573 20992 ft 320 kts 98°
2026-05-04 09:58 21.44320 -80.44217 20994 ft 320 kts 99°
2026-05-04 09:58 21.43961 -80.41855 20985 ft 320 kts 98°
2026-05-04 09:58 21.43601 -80.39495 20993 ft 320 kts 98°
2026-05-04 10:00 21.41084 -80.23028 20984 ft 320 kts 99°
2026-05-04 10:00 21.40722 -80.20667 20987 ft 320 kts 99°
2026-05-04 10:02 21.38185 -80.04196 20990 ft 320 kts 99°
2026-05-04 10:04 21.35629 -79.87753 20987 ft 320 kts 99°
2026-05-04 10:04 21.35265 -79.85390 20982 ft 320 kts 99°
2026-05-04 10:04 21.34897 -79.83035 20989 ft 320 kts 99°
2026-05-04 10:04 21.34529 -79.80679 20983 ft 320 kts 99°
2026-05-04 10:05 21.34157 -79.78322 20982 ft 320 kts 99°
2026-05-04 10:05 21.33789 -79.75968 20990 ft 320 kts 99°
2026-05-04 10:05 21.33424 -79.73643 20989 ft 320 kts 99°
2026-05-04 10:05 21.33054 -79.71276 20992 ft 320 kts 99°
2026-05-04 10:06 21.32683 -79.68915 20991 ft 320 kts 99°
2026-05-04 10:06 21.32310 -79.66545 20991 ft 321 kts 99°
2026-05-04 10:06 21.31943 -79.64212 20981 ft 321 kts 99°
2026-05-04 10:08 21.29719 -79.50082 20988 ft 320 kts 99°
2026-05-04 10:08 21.29347 -79.47724 20985 ft 320 kts 99°
2026-05-04 10:08 21.28975 -79.45392 20986 ft 320 kts 99°
2026-05-04 10:08 21.28602 -79.43036 20984 ft 320 kts 99°
2026-05-04 10:09 21.28229 -79.40685 20990 ft 320 kts 99°
2026-05-04 10:09 21.27857 -79.38331 20991 ft 320 kts 99°
2026-05-04 10:09 21.27609 -79.36767 20980 ft 320 kts 99°
2026-05-04 10:09 21.27236 -79.34413 20988 ft 320 kts 99°
2026-05-04 10:10 21.26862 -79.32056 20992 ft 319 kts 99°
2026-05-04 10:10 21.26494 -79.29737 20990 ft 319 kts 99°
2026-05-04 10:10 21.26119 -79.27379 20987 ft 319 kts 99°
2026-05-04 10:10 21.25745 -79.25026 20992 ft 319 kts 99°
2026-05-04 10:11 21.25375 -79.22700 20988 ft 319 kts 99°
2026-05-04 10:11 21.24999 -79.20344 20990 ft 319 kts 99°
2026-05-04 10:11 21.24622 -79.17986 20991 ft 319 kts 99°
2026-05-04 10:11 21.24255 -79.15665 20992 ft 319 kts 99°
2026-05-04 10:12 21.23883 -79.13316 20992 ft 319 kts 99°
2026-05-04 10:12 21.23507 -79.10962 20993 ft 319 kts 100°
2026-05-04 10:12 21.23118 -79.08619 20993 ft 319 kts 100°
2026-05-04 10:12 21.22738 -79.06275 20988 ft 319 kts 99°
2026-05-04 10:13 21.22370 -79.03955 20992 ft 319 kts 100°
2026-05-04 10:13 21.21989 -79.01602 20988 ft 319 kts 99°
2026-05-04 10:13 21.21612 -78.99258 20994 ft 319 kts 99°
2026-05-04 10:13 21.21234 -78.96911 20992 ft 319 kts 100°
2026-05-04 10:14 21.20860 -78.94594 20990 ft 319 kts 100°
2026-05-04 10:14 21.20482 -78.92243 20985 ft 319 kts 100°
2026-05-04 10:16 21.17822 -78.75905 20992 ft 318 kts 100°
2026-05-04 10:16 21.17441 -78.73573 20986 ft 317 kts 100°
2026-05-04 10:16 21.17061 -78.71246 20992 ft 317 kts 100°
2026-05-04 10:16 21.16678 -78.68911 20984 ft 317 kts 100°
2026-05-04 10:17 21.16302 -78.66612 20988 ft 317 kts 100°
2026-05-04 10:17 21.15924 -78.64285 20993 ft 317 kts 100°
2026-05-04 10:19 21.16600 -78.47920 20993 ft 316 kts 86°
2026-05-04 10:19 21.16730 -78.45560 20994 ft 316 kts 86°
2026-05-04 10:19 21.16876 -78.43207 20994 ft 316 kts 85°
2026-05-04 10:19 21.17042 -78.40881 20987 ft 317 kts 85°
2026-05-04 10:20 21.17220 -78.38523 20994 ft 317 kts 85°
2026-05-04 10:20 21.17387 -78.36170 20996 ft 317 kts 85°
2026-05-04 10:20 21.17538 -78.33804 20997 ft 317 kts 85°
2026-05-04 10:20 21.17695 -78.31445 20991 ft 317 kts 85°
2026-05-04 10:21 21.17797 -78.29883 20992 ft 317 kts 85°
2026-05-04 10:21 21.17871 -78.28773 20995 ft 317 kts 85°
2026-05-04 10:21 21.18025 -78.26443 20996 ft 317 kts 85°
2026-05-04 10:22 21.18335 -78.21720 20994 ft 317 kts 85°
2026-05-04 10:22 21.18489 -78.19360 20994 ft 316 kts 85°
2026-05-04 10:22 21.18641 -78.17034 20990 ft 316 kts 85°
2026-05-04 10:23 21.18794 -78.14680 20997 ft 316 kts 85°
2026-05-04 10:23 21.18948 -78.12333 20997 ft 316 kts 85°
2026-05-04 10:25 21.20006 -77.95950 20994 ft 315 kts 85°
2026-05-04 10:25 21.20155 -77.93626 20995 ft 314 kts 85°
2026-05-04 10:25 21.20304 -77.91284 20994 ft 314 kts 85°
2026-05-04 10:25 21.20453 -77.88942 20994 ft 314 kts 86°
2026-05-04 10:26 21.20603 -77.86602 20997 ft 314 kts 86°
2026-05-04 10:26 21.20751 -77.84259 20995 ft 314 kts 86°
2026-05-04 10:26 21.20898 -77.81943 20995 ft 314 kts 86°
2026-05-04 10:26 21.21046 -77.79597 20995 ft 314 kts 86°
2026-05-04 10:27 21.21189 -77.77259 20994 ft 314 kts 86°
2026-05-04 10:27 21.21338 -77.74927 20994 ft 314 kts 86°
2026-05-04 10:27 21.21481 -77.72624 20997 ft 313 kts 85°
2026-05-04 10:27 21.21626 -77.70291 20993 ft 313 kts 86°
2026-05-04 10:28 21.21771 -77.67955 20994 ft 313 kts 86°
2026-05-04 10:28 21.21918 -77.65613 20995 ft 313 kts 86°
2026-05-04 10:28 21.22061 -77.63306 20995 ft 313 kts 86°
2026-05-04 10:28 21.22207 -77.60967 20994 ft 313 kts 86°
2026-05-04 10:29 21.22351 -77.58631 20997 ft 313 kts 86°
2026-05-04 10:29 21.22493 -77.56324 20993 ft 313 kts 86°
2026-05-04 10:29 21.22638 -77.53996 20997 ft 313 kts 86°
2026-05-04 10:29 21.22781 -77.51673 20995 ft 313 kts 86°
2026-05-04 10:30 21.22924 -77.49338 20997 ft 313 kts 86°
2026-05-04 10:30 21.23066 -77.47010 20997 ft 313 kts 86°
2026-05-04 10:30 21.23208 -77.44683 20996 ft 313 kts 86°
2026-05-04 10:30 21.23349 -77.42356 20999 ft 313 kts 86°
2026-05-04 10:31 21.23489 -77.40044 20998 ft 312 kts 86°
2026-05-04 10:31 21.23631 -77.37725 20998 ft 313 kts 86°
2026-05-04 10:32 21.24469 -77.23805 20997 ft 312 kts 86°
2026-05-04 10:33 21.24607 -77.21482 20993 ft 312 kts 86°
2026-05-04 10:33 21.24745 -77.19159 20994 ft 312 kts 86°
2026-05-04 10:33 21.24887 -77.16838 20999 ft 312 kts 86°
2026-05-04 10:33 21.24823 -77.14532 20997 ft 307 kts 104°
2026-05-04 10:34 21.24076 -77.12386 20809 ft 311 kts 118°
2026-05-04 10:34 21.22958 -77.10368 20363 ft 324 kts 125°
2026-05-04 10:34 21.21692 -77.08325 19891 ft 333 kts 126°
2026-05-04 10:34 21.20412 -77.06210 19428 ft 338 kts 123°
2026-05-04 10:35 21.19198 -77.04040 18978 ft 341 kts 122°
2026-05-04 10:35 21.18019 -77.01858 18537 ft 343 kts 121°
2026-05-04 10:35 21.16826 -76.99628 18051 ft 344 kts 121°
2026-05-04 10:35 21.15613 -76.97412 17568 ft 343 kts 122°
2026-05-04 10:36 21.14377 -76.95221 17083 ft 343 kts 122°
2026-05-04 10:36 21.13171 -76.93059 16614 ft 342 kts 122°
2026-05-04 10:36 21.11954 -76.90878 16147 ft 339 kts 122°
2026-05-04 10:36 21.10748 -76.88728 15694 ft 333 kts 122°
2026-05-04 10:37 21.09562 -76.86604 15247 ft 331 kts 122°
2026-05-04 10:37 21.08405 -76.84540 14805 ft 316 kts 122°
2026-05-04 10:37 21.07285 -76.82544 14354 ft 310 kts 122°
2026-05-04 10:37 21.06183 -76.80572 13936 ft 306 kts 122°
2026-05-04 10:39 20.99787 -76.69151 11371 ft 288 kts 122°
2026-05-04 10:39 20.98767 -76.67336 11163 ft 281 kts 122°
2026-05-04 10:39 20.97768 -76.65554 10945 ft 276 kts 122°
2026-05-04 10:40 20.96785 -76.63804 10742 ft 273 kts 122°
2026-05-04 10:40 20.95809 -76.62066 10513 ft 271 kts 122°
2026-05-04 10:40 20.94844 -76.60348 10294 ft 269 kts 122°
2026-05-04 10:40 20.93883 -76.58640 10114 ft 266 kts 122°
2026-05-04 10:41 20.92952 -76.56984 10061 ft 259 kts 122°
2026-05-04 10:41 20.92032 -76.55347 10028 ft 253 kts 122°
2026-05-04 10:41 20.91132 -76.53745 10015 ft 250 kts 122°
2026-05-04 10:41 20.90235 -76.52124 10004 ft 255 kts 122°
2026-05-04 10:42 20.89332 -76.50480 10005 ft 258 kts 121°
2026-05-04 10:42 20.88434 -76.48838 10004 ft 260 kts 121°
2026-05-04 10:42 20.87521 -76.47166 9999 ft 261 kts 121°
2026-05-04 10:42 20.86598 -76.45477 9943 ft 264 kts 121°
2026-05-04 10:43 20.85661 -76.43762 9694 ft 269 kts 121°
2026-05-04 10:44 20.79035 -76.31722 7953 ft 267 kts 121°
2026-05-04 10:45 20.78087 -76.30016 7717 ft 267 kts 121°
2026-05-04 10:45 20.77141 -76.28312 7473 ft 265 kts 121°
2026-05-04 10:45 20.76623 -76.26467 7229 ft 263 kts 90°
2026-05-04 10:45 20.77147 -76.24616 6994 ft 263 kts 57°
2026-05-04 10:46 20.78256 -76.23085 6763 ft 261 kts 50°
2026-05-04 10:46 20.79442 -76.21613 6533 ft 261 kts 49°
2026-05-04 10:46 20.80649 -76.20153 6298 ft 262 kts 48°
2026-05-04 10:46 20.81847 -76.18715 6051 ft 262 kts 48°
2026-05-04 10:47 20.83060 -76.17264 5808 ft 262 kts 48°
2026-05-04 10:47 20.84274 -76.15814 5563 ft 262 kts 48°
2026-05-04 10:47 20.85490 -76.14363 5323 ft 261 kts 48°
2026-05-04 10:47 20.86705 -76.12915 5078 ft 261 kts 48°
2026-05-04 10:49 20.95996 -76.09531 3378 ft 259 kts 287°
2026-05-04 10:49 20.96004 -76.11435 3140 ft 259 kts 254°
2026-05-04 10:50 20.95299 -76.13141 2899 ft 244 kts 241°
2026-05-04 10:51 20.87764 -76.21731 2007 ft 209 kts 224°
2026-05-04 10:52 20.86737 -76.22813 2003 ft 205 kts 224°
2026-05-04 10:52 20.85720 -76.23884 2000 ft 203 kts 224°
2026-05-04 10:52 20.84716 -76.24944 1974 ft 203 kts 224°
2026-05-04 10:54 20.79190 -76.30806 409 ft 119 kts 218°
2026-05-04 10:54 20.78683 -76.31366 331 ft 88 kts 229°
2026-05-04 10:56 20.78655 -76.31402 330 ft 10 kts 48°
2026-05-04 10:56 20.78706 -76.31343 331 ft 11 kts 44°
2026-05-04 10:56 20.78763 -76.31283 333 ft 12 kts 44°
2026-05-04 10:57 20.78820 -76.31221 335 ft 12 kts 46°
2026-05-04 10:57 20.78876 -76.31158 334 ft 12 kts 46°
2026-05-04 10:57 20.78935 -76.31092 336 ft 13 kts 51°
2026-05-04 10:57 20.78954 -76.31007 338 ft 12 kts 86°
2026-05-04 10:58 20.78949 -76.30919 343 ft 10 kts 97°
2026-05-04 10:58 20.78945 -76.30862 355 ft 6 kts 92°
2026-05-04 10:58 20.78945 -76.30810 346 ft 13 kts 90°
2026-05-04 10:58 20.78980 -76.30688 350 ft 18 kts 43°
2026-05-04 10:59 20.79057 -76.30604 357 ft 13 kts 57°
2026-05-04 10:59 20.79080 -76.30556 359 ft 9 kts 32°
2026-05-04 10:59 20.79124 -76.30518 356 ft 3 kts 70°
2026-05-04 10:59 20.79121 -76.30503 360 ft 3 kts 117°
2026-05-04 11:00 20.79106 -76.30500 357 ft 5 kts 186°